�������l�o���
Date,Time,MP-1(��Sv/h),MP-2(��Sv/h),MP-3(��Sv/h),MP-4(��Sv/h),MP-5(��Sv/h),MP-6(��Sv/h),MP-7(��Sv/h),MP-8(��Sv/h),����,����(m/s),���J
2018/11/09,00:00,0.765,1.155,0.813,1.452,1.043,0.452,0.798,0.756,�k�k��,5.5,��
2018/11/09,00:10,0.765,1.154,0.813,1.453,1.045,0.454,0.799,0.756,�k�k��,5.8,��
2018/11/09,00:20,0.764,1.153,0.812,1.455,1.045,0.454,0.799,0.756,�k�k��,5.3,��
2018/11/09,00:30,0.763,1.154,0.815,1.454,1.043,0.452,0.798,0.756,�k�k��,5.9,��
2018/11/09,00:40,0.764,1.152,0.814,1.453,1.043,0.452,0.798,0.755,�k�k��,6.1,��
2018/11/09,00:50,0.763,1.154,0.811,1.452,1.046,0.454,0.797,0.755,�k�k��,5.5,��
2018/11/09,01:00,0.765,1.153,0.815,1.455,1.043,0.453,0.799,0.757,�k�k��,5.5,��
2018/11/09,01:10,0.764,1.154,0.813,1.453,1.045,0.452,0.798,0.755,�k�k��,5.3,�L
2018/11/09,01:20,0.766,1.155,0.815,1.456,1.046,0.453,0.799,0.755,�k�k��,5.2,��
2018/11/09,01:30,0.765,1.152,0.815,1.453,1.043,0.452,0.799,0.757,�k�k��,5.5,�L
2018/11/09,01:40,0.766,1.154,0.813,1.456,1.045,0.453,0.798,0.755,�k�k��,5.5,��
2018/11/09,01:50,0.762,1.154,0.812,1.452,1.044,0.454,0.799,0.756,�k�k��,5.0,��
2018/11/09,02:00,0.764,1.154,0.813,1.452,1.046,0.453,0.799,0.757,�k�k��,5.0,�L
2018/11/09,02:10,0.764,1.152,0.813,1.457,1.044,0.453,0.798,0.757,�k�k��,4.2,�L
2018/11/09,02:20,0.764,1.153,0.811,1.450,1.042,0.452,0.797,0.757,�k�k��,4.3,�L
2018/11/09,02:30,0.764,1.150,0.814,1.450,1.039,0.454,0.797,0.756,�k�k��,4.8,�L
2018/11/09,02:40,0.763,1.150,0.812,1.451,1.043,0.454,0.798,0.756,�k�k��,5.3,�L
2018/11/09,02:50,0.764,1.152,0.813,1.449,1.040,0.453,0.795,0.755,�k�k��,4.7,��
2018/11/09,03:00,0.766,1.148,0.813,1.449,1.043,0.454,0.795,0.756,�k�k��,5.3,�L
2018/11/09,03:10,0.763,1.151,0.813,1.451,1.042,0.453,0.795,0.756,�k�k��,4.7,�L
2018/11/09,03:20,0.762,1.147,0.811,1.449,1.039,0.453,0.796,0.754,�k�k��,3.8,�L
2018/11/09,03:30,0.762,1.143,0.807,1.444,1.036,0.453,0.795,0.753,�k��,2.6,�L
2018/11/09,03:40,0.760,1.138,0.807,1.438,1.034,0.453,0.793,0.753,�k�k��,2.5,�L
2018/11/09,03:50,0.758,1.134,0.803,1.436,1.028,0.451,0.792,0.748,���k��,2.9,�L
2018/11/09,04:00,0.754,1.126,0.802,1.432,1.023,0.450,0.791,0.749,�k�k��,2.3,�L
2018/11/09,04:10,0.752,1.126,0.800,1.426,1.023,0.451,0.789,0.747,�k�k��,2.0,�L
2018/11/09,04:20,0.755,1.124,0.800,1.425,1.021,0.451,0.789,0.747,�k�k��,2.3,�L
2018/11/09,04:30,0.755,1.126,0.801,1.425,1.023,0.451,0.790,0.747,�k��,2.5,�L
2018/11/09,04:40,0.755,1.125,0.800,1.421,1.022,0.451,0.790,0.746,�k�k��,2.3,�L
2018/11/09,04:50,0.755,1.127,0.801,1.423,1.021,0.451,0.790,0.748,�k�k��,1.7,��
2018/11/09,05:00,0.755,1.129,0.799,1.424,1.021,0.450,0.789,0.747,�k�k��,2.3,��
2018/11/09,05:10,0.756,1.129,0.800,1.423,1.024,0.450,0.788,0.749,�k,2.3,�L
2018/11/09,05:20,0.756,1.130,0.803,1.423,1.024,0.450,0.788,0.747,�k�k��,2.6,�L
2018/11/09,05:30,0.756,1.130,0.801,1.425,1.026,0.450,0.790,0.749,�k,1.7,��
2018/11/09,05:40,0.755,1.132,0.801,1.425,1.025,0.450,0.788,0.748,�k�k��,1.7,��
2018/11/09,05:50,0.755,1.131,0.802,1.425,1.024,0.450,0.789,0.750,�k�k��,2.0,�L
2018/11/09,06:00,0.754,1.132,0.800,1.425,1.025,0.448,0.788,0.748,�k�k��,2.0,�L
2018/11/09,06:10,0.757,1.129,0.799,1.423,1.023,0.449,0.790,0.750,�k�k��,1.7,�L
2018/11/09,06:20,0.756,1.131,0.800,1.424,1.026,0.451,0.788,0.747,�k�k��,1.4,�L
2018/11/09,06:30,0.756,1.130,0.801,1.424,1.024,0.451,0.787,0.749,�k,1.5,�L
2018/11/09,06:40,0.755,1.131,0.801,1.423,1.025,0.450,0.789,0.750,�k,1.1,�L
2018/11/09,06:50,0.755,1.124,0.799,1.419,1.021,0.449,0.787,0.748,���k��,1.2,�L
2018/11/09,07:00,0.752,1.122,0.795,1.417,1.019,0.449,0.789,0.750,�k�k��,2.3,�L
2018/11/09,07:10,0.753,1.125,0.796,1.418,1.024,0.449,0.789,0.749,�k�k��,2.9,�L
2018/11/09,07:20,0.754,1.119,0.796,1.416,1.021,0.449,0.789,0.747,�k��,2.3,�L
2018/11/09,07:30,0.750,1.120,0.795,1.416,1.017,0.448,0.784,0.744,�k�k��,2.3,�L
2018/11/09,07:40,0.749,1.118,0.793,1.407,1.014,0.450,0.785,0.742,�k��,3.0,�L
2018/11/09,07:50,0.748,1.116,0.793,1.406,1.012,0.447,0.785,0.743,�k�k��,0.6,�L
2018/11/09,08:00,0.750,1.118,0.793,1.407,1.014,0.448,0.786,0.743,�k��,1.7,�L
2018/11/09,08:10,0.751,1.119,0.794,1.408,1.013,0.448,0.785,0.744,�k�k��,1.5,�L
2018/11/09,08:20,0.749,1.114,0.794,1.407,1.013,0.449,0.783,0.742,�k�k��,1.2,�L
2018/11/09,08:30,0.748,1.113,0.792,1.405,1.010,0.447,0.783,0.743,�k��,2.0,�L
2018/11/09,08:40,0.747,1.115,0.793,1.404,1.013,0.448,0.783,0.742,�k�k��,1.4,�L
2018/11/09,08:50,0.748,1.116,0.796,1.405,1.015,0.450,0.785,0.742,�k�k��,1.9,�L
2018/11/09,09:00,0.749,1.118,0.794,1.405,1.014,0.447,0.784,0.744,�k�k��,2.8,�L
2018/11/09,09:10,0.752,1.115,0.792,1.401,1.014,0.447,0.784,0.742,�k,1.9,�L
2018/11/09,09:20,0.745,1.112,0.791,1.401,1.011,0.447,0.781,0.743,�k�k��,1.5,�L
2018/11/09,09:30,0.740,1.109,0.790,1.396,1.006,0.446,0.779,0.739,�k�k��,0.9,�L
2018/11/09,09:40,0.743,1.108,0.789,1.398,1.006,0.446,0.780,0.739,�k�k��,1.1,�L
2018/11/09,09:50,0.745,1.110,0.793,1.400,1.005,0.447,0.781,0.739,�k�k��,0.9,�L
2018/11/09,10:00,0.747,1.112,0.791,1.400,1.007,0.447,0.784,0.740,�k�k��,0.9,�L
2018/11/09,10:10,0.749,1.112,0.792,1.399,1.008,0.447,0.784,0.738,-,CALM,�L
2018/11/09,10:20,0.751,1.117,0.793,1.401,1.009,0.448,0.784,0.741,��쐼,0.8,�L
2018/11/09,10:30,0.751,1.114,0.793,1.406,1.010,0.447,0.783,0.743,��쐼,1.7,�L
2018/11/09,10:40,0.750,1.115,0.793,1.406,1.012,0.449,0.783,0.742,��쐼,2.3,�L
2018/11/09,10:50,0.751,1.120,0.792,1.406,1.013,0.446,0.783,0.742,��,3.8,�L
2018/11/09,11:00,0.752,1.119,0.794,1.407,1.016,0.447,0.784,0.742,��,3.7,�L
2018/11/09,11:10,0.752,1.120,0.794,1.404,1.014,0.453,0.784,0.744,��,3.7,�L
2018/11/09,11:20,0.752,1.119,0.795,1.406,1.012,0.449,0.783,0.741,��,3.7,�L
2018/11/09,11:30,0.752,1.113,0.792,1.403,1.008,0.448,0.782,0.741,��,4.6,�L
2018/11/09,11:40,0.741,1.103,0.788,1.393,0.998,0.444,0.777,0.738,��쐼,6.1,�L
2018/11/09,11:50,0.741,1.098,0.788,1.391,1.000,0.444,0.778,0.738,��,5.6,�L
2018/11/09,12:00,0.741,1.102,0.787,1.395,1.000,0.444,0.780,0.737,��,6.2,�L
2018/11/09,12:10,0.744,1.105,0.784,1.394,1.001,0.446,0.780,0.739,��,5.9,�L
2018/11/09,12:20,0.746,1.103,0.789,1.396,1.001,0.446,0.779,0.739,��,6.8,�L
2018/11/09,12:30,0.744,1.105,0.789,1.395,1.005,0.445,0.778,0.740,��,6.5,�L
2018/11/09,12:40,0.746,1.106,0.789,1.398,1.004,0.445,0.780,0.738,��쓌,7.0,�L
2018/11/09,12:50,0.746,1.107,0.789,1.396,1.005,0.447,0.784,0.741,��,6.7,�L
2018/11/09,13:00,0.747,1.109,0.789,1.400,1.006,0.446,0.780,0.741,��쓌,5.9,�L
2018/11/09,13:10,0.745,1.110,0.788,1.400,1.003,0.446,0.781,0.738,��쓌,7.1,�L
2018/11/09,13:20,0.748,1.113,0.788,1.398,1.004,0.445,0.782,0.739,��쓌,7.3,�L
2018/11/09,13:30,0.746,1.112,0.787,1.400,1.007,0.448,0.781,0.739,��쓌,8.1,�L
2018/11/09,13:40,0.747,1.114,0.789,1.401,1.004,0.446,0.783,0.739,��쓌,7.5,�L
2018/11/09,13:50,0.746,1.114,0.790,1.400,1.008,0.447,0.780,0.740,��쓌,8.1,�L
2018/11/09,14:00,0.748,1.115,0.791,1.401,1.009,0.448,0.782,0.740,��쓌,8.5,�L
2018/11/09,14:10,0.749,1.115,0.792,1.404,1.007,0.447,0.784,0.741,��쓌,8.3,�L
2018/11/09,14:20,0.751,1.117,0.790,1.401,1.011,0.450,0.784,0.740,��쓌,8.8,�L
2018/11/09,14:30,0.749,1.118,0.792,1.402,1.010,0.449,0.783,0.741,��쓌,7.0,�L
2018/11/09,14:40,0.751,1.118,0.791,1.401,1.008,0.448,0.782,0.741,��쓌,8.5,�L
2018/11/09,14:50,0.750,1.117,0.791,1.402,1.007,0.449,0.783,0.740,��쓌,8.8,�L
2018/11/09,15:00,0.749,1.116,0.789,1.404,1.007,0.449,0.782,0.738,��,7.3,�L
2018/11/09,15:10,0.746,1.114,0.786,1.401,1.005,0.449,0.781,0.739,��,7.1,�L
2018/11/09,15:20,0.744,1.110,0.785,1.396,1.002,0.449,0.781,0.739,��쓌,9.1,�L
2018/11/09,15:30,0.743,1.112,0.786,1.397,1.002,0.449,0.779,0.738,��쓌,9.6,�L
2018/11/09,15:40,0.744,1.110,0.786,1.395,1.002,0.448,0.779,0.739,��쓌,10.9,�L
2018/11/09,15:50,0.743,1.110,0.785,1.394,1.002,0.448,0.779,0.738,��쓌,10.2,�L
2018/11/09,16:00,0.741,1.109,0.783,1.391,1.000,0.449,0.780,0.736,��쓌,10.7,�L
2018/11/09,16:10,0.743,1.113,0.785,1.393,1.000,0.448,0.779,0.737,��쓌,10.9,�L
2018/11/09,16:20,0.739,1.106,0.783,1.390,0.998,0.446,0.779,0.737,��쓌,10.3,�L
2018/11/09,16:30,0.740,1.104,0.781,1.387,0.994,0.448,0.778,0.737,��쓌,11.4,�L
2018/11/09,16:40,0.738,1.100,0.782,1.382,0.991,0.447,0.776,0.735,��쓌,9.9,�L
2018/11/09,16:50,0.739,1.103,0.781,1.386,0.993,0.447,0.778,0.738,��쓌,10.3,�L
2018/11/09,17:00,0.741,1.107,0.781,1.389,0.997,0.448,0.778,0.736,��쓌,8.9,�L
2018/11/09,17:10,0.744,1.107,0.785,1.388,0.996,0.447,0.779,0.738,��쓌,10.2,�L
2018/11/09,17:20,0.742,1.109,0.785,1.391,0.996,0.449,0.778,0.737,��쓌,10.6,�L
2018/11/09,17:30,0.743,1.112,0.785,1.393,0.999,0.449,0.779,0.737,��쓌,9.3,�L
2018/11/09,17:40,0.745,1.111,0.785,1.392,1.000,0.450,0.778,0.739,��쓌,8.5,�L
2018/11/09,17:50,0.745,1.111,0.787,1.392,1.000,0.449,0.780,0.737,��쓌,7.9,��
2018/11/09,18:00,0.744,1.112,0.786,1.395,1.002,0.449,0.779,0.737,��,8.2,�L
2018/11/09,18:10,0.744,1.114,0.787,1.397,1.002,0.450,0.780,0.738,��쓌,9.0,�L
2018/11/09,18:20,0.747,1.114,0.787,1.395,1.001,0.449,0.781,0.739,��쓌,8.8,�L
2018/11/09,18:30,0.744,1.114,0.789,1.396,1.004,0.450,0.780,0.740,��,7.7,�L
2018/11/09,18:40,0.745,1.114,0.790,1.398,1.000,0.451,0.781,0.737,��,9.5,�L
2018/11/09,18:50,0.746,1.113,0.787,1.397,1.000,0.449,0.779,0.738,��,8.3,�L
2018/11/09,19:00,0.743,1.111,0.787,1.395,1.002,0.451,0.779,0.738,��,9.4,�L
2018/11/09,19:10,0.745,1.113,0.785,1.396,1.003,0.450,0.781,0.740,��,9.1,�L
2018/11/09,19:20,0.746,1.114,0.786,1.395,1.006,0.450,0.782,0.738,��,11.1,��
2018/11/09,19:30,0.747,1.113,0.787,1.396,1.001,0.450,0.782,0.739,��,7.6,�L
2018/11/09,19:40,0.748,1.116,0.789,1.396,1.003,0.450,0.782,0.740,��,6.4,�L
2018/11/09,19:50,0.746,1.116,0.790,1.395,1.004,0.450,0.782,0.740,��,6.8,��
2018/11/09,20:00,0.748,1.117,0.789,1.396,1.003,0.452,0.780,0.740,��,8.1,��
2018/11/09,20:10,0.748,1.116,0.791,1.398,1.004,0.450,0.782,0.741,��,9.1,��
2018/11/09,20:20,0.750,1.117,0.790,1.399,1.005,0.451,0.781,0.741,��,6.9,��
2018/11/09,20:30,0.749,1.118,0.790,1.400,1.004,0.452,0.782,0.741,��,6.2,��
2018/11/09,20:40,0.747,1.118,0.793,1.398,1.006,0.449,0.783,0.738,��,6.7,��
2018/11/09,20:50,0.749,1.120,0.793,1.399,1.005,0.452,0.782,0.741,��,6.1,��
2018/11/09,21:00,0.748,1.119,0.791,1.399,1.007,0.451,0.783,0.743,��쓌,6.1,��
2018/11/09,21:10,0.749,1.121,0.792,1.400,1.006,0.452,0.781,0.742,��,7.2,��
2018/11/09,21:20,0.751,1.122,0.790,1.401,1.007,0.451,0.783,0.742,��,7.2,��
2018/11/09,21:30,0.750,1.121,0.792,1.402,1.008,0.453,0.783,0.745,��,5.9,��
2018/11/09,21:40,0.752,1.118,0.793,1.401,1.009,0.453,0.784,0.742,��,5.1,��
2018/11/09,21:50,0.752,1.121,0.792,1.401,1.010,0.453,0.783,0.742,��,6.0,��
2018/11/09,22:00,0.752,1.120,0.793,1.401,1.010,0.453,0.785,0.744,��,5.5,��
2018/11/09,22:10,0.751,1.126,0.793,1.404,1.010,0.454,0.785,0.743,��,5.5,��
2018/11/09,22:20,0.751,1.127,0.793,1.401,1.010,0.453,0.784,0.744,��쐼,4.5,��
2018/11/09,22:30,0.752,1.126,0.794,1.405,1.011,0.453,0.785,0.743,��,4.2,��
2018/11/09,22:40,0.752,1.124,0.794,1.402,1.013,0.453,0.786,0.745,��쓌,4.2,��
2018/11/09,22:50,0.751,1.125,0.792,1.402,1.011,0.454,0.786,0.742,��,4.8,��
2018/11/09,23:00,0.753,1.127,0.792,1.403,1.013,0.454,0.787,0.744,��,4.9,��
2018/11/09,23:10,0.752,1.125,0.793,1.405,1.012,0.454,0.785,0.743,��,5.0,��
2018/11/09,23:20,0.753,1.126,0.792,1.404,1.012,0.453,0.787,0.744,��,4.2,��
2018/11/09,23:30,0.753,1.126,0.793,1.405,1.013,0.452,0.787,0.743,��,5.9,��
2018/11/09,23:40,0.752,1.125,0.794,1.405,1.013,0.453,0.786,0.744,��,4.7,��
2018/11/09,23:50,0.751,1.127,0.793,1.404,1.015,0.454,0.786,0.743,��,4.9,��
